This is the latest recevied weather packets stored in our database for station/object EA2RCU-15. If no packets are shown the sender has not sent any weather packets the latest 10 day(s).
| Time | Temp. | Humidity | Pressure | Rain* | Wind** | Luminosity | Snow |
|---|---|---|---|---|---|---|---|
| 1777816504 | 22.22° C | 43% | 994 hPa | 0 mm | - | - | - |
| 1777816204 | 22.22° C | 43% | 994 hPa | 0 mm | - | - | - |
| 1777815904 | 22.22° C | 41% | 994 hPa | 0 mm | - | - | - |
| 1777815605 | 22.22° C | 42% | 995 hPa | 0 mm | - | - | - |
| 1777815304 | 22.22° C | 42% | 995 hPa | 0 mm | - | - | - |
| 1777815004 | 22.22° C | 44% | 995 hPa | 0 mm | - | - | - |
| 1777814704 | 21.67° C | 45% | 995 hPa | 0 mm | - | - | - |
| 1777814405 | 21.67° C | 46% | 995 hPa | 0 mm | - | - | - |
| 1777814104 | 21.67° C | 48% | 995 hPa | 0 mm | - | - | - |
| 1777813804 | 21.11° C | 51% | 995 hPa | 0 mm | - | - | - |
| 1777813506 | 20.56° C | 53% | 995 hPa | 0 mm | - | - | - |
| 1777813205 | 20.56° C | 54% | 995 hPa | 0 mm | - | - | - |
| 1777812905 | 20° C | 54% | 995 hPa | 0 mm | - | - | - |
| 1777812605 | 20.56° C | 52% | 995 hPa | 0 mm | - | - | - |
| 1777812306 | 20.56° C | 51% | 995 hPa | 0 mm | - | - | - |
| 1777812006 | 20.56° C | 52% | 995 hPa | 0 mm | - | - | - |
| 1777811705 | 20° C | 53% | 995 hPa | 0 mm | - | - | - |
| 1777811406 | 20° C | 54% | 995 hPa | 1.02 mm | - | - | - |
| 1777811106 | 19.44° C | 55% | 995 hPa | 1.02 mm | - | - | - |
| 1777810805 | 19.44° C | 60% | 995 hPa | 2.03 mm | - | - | - |
| 1777810506 | 19.44° C | 60% | 995 hPa | 2.03 mm | - | - | - |
| 1777810205 | 19.44° C | 62% | 995 hPa | 3.05 mm | - | - | - |
| 1777809905 | 19.44° C | 60% | 995 hPa | 4.06 mm | - | - | - |
| 1777809606 | 20° C | 58% | 995 hPa | 8.89 mm | - | - | - |
| 1777809306 | 20° C | 57% | 996 hPa | 8.89 mm | - | - | - |
* Rain latest hour (hover to see other rain measurements)
** Current wind speed in m/s (hover to see current wind gust speed)